Location: C.E.K. Mees Observatory
(42.7003°N, 77.4088°W)
Time: 16:27:44
(UTC-04:00)

ISS - Pass Details

Date: 16 October 2017
Orbit: 401 x 408 km, 51.6° (Epoch: 19 October)

Event Time Altitude Azimuth Distance (km) Brightness Sun altitude
Rises 19:17:33 0° 295° (WNW) 2,322 1.2 -10.4°
Reaches altitude 10° 19:19:50 10° 282° (WNW) 1,460 0.4 -10.8°
Maximum altitude 19:22:37 26° 224° (SW) 836 -1.7 -11.3°
Drops below altitude 10° 19:25:24 10° 165° (SSE) 1,455 -1.2 -11.8°
Enters shadow 19:27:31 - 153° (SSE) 2,252 -0.3 -12.2°
